Terminal Aerodrome Forecast
Issued by NWS Denver/Boulder, CO

Home | Current Version | Previous Version | Text Only | Print | Product List | Glossary On
Versions: 1 2 3 4 5 6 7 8 9 10 11 12 13 14 15 16 17 18 19 20 21 22 23 24 25 26 27 28 29 30 31 32 33 34 35 36 37 38 39 40 41 42 43 44 45 46 47 48 49 50
661
FTUS45 KBOU 252127 AAE
TAFDEN
TAF AMD
KDEN 252127Z 2521/2624 33020G37KT 6SM -SHRA FEW025 SCT045 BKN070
     FM252230 35014G23KT P6SM VCSH SCT050 BKN080 BKN200
      TEMPO 2523/2601 -SHRA BKN045 OVC060
     FM260100 02018G30KT P6SM -SHRA BKN035 OVC060
      TEMPO 2602/2603 3SM -RASN BKN015 OVC030
     FM260300 03013KT P6SM SCT030 BKN150
     FM261100 VRB06KT P6SM VCFG FEW001 SCT200
     FM261600 09009KT P6SM SCT070=

USA.gov is the U.S. government's official web portal to all federal, state and local government web resources and services.